Regional Weather Roundup
Issued by NWS

Home | Current Version | Previous Version | Graphics & Text | Print | Product List | Glossary On
Versions: 1 2 3 4 5 6 7 8 9 10 11 12 13 14 15 16 17 18 19 20 21 22 23 24 25 26 27 28 29 30 31 32 33 34 35 36 37 38 39 40 41 42 43 44 45 46 47 48 49 50
000
ASUS45 KCYS 300010
RWRWY

WYOMING REGIONAL WEATHER ROUNDUP
NATIONAL WEATHER SERVICE CHEYENNE WY
600 PM MDT FRI AUG 29 2014

NOTE:  "FAIR" INDICATES FEW OR NO CLOUDS BELOW 12,000 FEET
WITH NO SIGNIFICANT WEATHER AND/OR OBSTRUCTIONS TO VISIBILITY.

WYZ001-300100-
YELLOWSTONE NATIONAL PARK

CITY           SKY/WX    TMP DP  RH WIND       PRES   REMARKS
LK YELLOWSTONE   N/A     67  36  31 VRB3      30.21F
6HR MIN TEMP:  58; 6HR MAX TEMP:  68;

W YELLOWSTONE  NOT AVBL

$$
WYZ002>013-054>058-071-098>099-300100-
NORTHERN WYOMING

CITY           SKY/WX    TMP DP  RH WIND       PRES   REMARKS
JACKSON        SUNNY     75  37  25 CALM      30.11
CODY           MOSUNNY   79  45  29 E7        29.98F
GREYBULL       SUNNY     83  43  24 S7        29.92F
6HR MIN TEMP:  72; 6HR MAX TEMP:  84;

WORLAND        SUNNY     83  37  19 SE7       29.94F
6HR MIN TEMP:  73; 6HR MAX TEMP:  83;

SHERIDAN       SUNNY     77  50  38 E5        29.99F
6HR MIN TEMP:  68; 6HR MAX TEMP:  77;

BUFFALO        SUNNY     74  45  35 SE7       30.05F
6HR MIN TEMP:  65; 6HR MAX TEMP:  75;

GILLETTE       MOSUNNY   75  46  35 CALM      30.03S
6HR MIN TEMP:  69; 6HR MAX TEMP:  76;

HULETT         FAIR      72  50  46 MISG      30.05
NEWCASTLE      FAIR      77  41  27 NW5       30.03

$$
WYZ014>020-022>026-101>103-300100-
CENTRAL WYOMING

CITY           SKY/WX    TMP DP  RH WIND       PRES   REMARKS
BIG PINEY      MOSUNNY   76  35  22 NW9       30.17S
6HR MIN TEMP:  68; 6HR MAX TEMP:  77;

PINEDALE       PTCLDY    73  32  21 W3        30.18S
DUBOIS         MOCLDY    70  34  26 N8        30.14F
LANDER         SUNNY     81  42  25 N8        30.00F
6HR MIN TEMP:  72; 6HR MAX TEMP:  84;

RIVERTON       SUNNY     80  38  22 SE8       30.02F
6HR MIN TEMP:  71; 6HR MAX TEMP:  81;

CASPER         MOSUNNY   78  39  24 NE12      30.05S
6HR MIN TEMP:  72; 6HR MAX TEMP:  82;

DOUGLAS        MOSUNNY   76  42  29 E7        30.05S
6HR MIN TEMP:  73; 6HR MAX TEMP:  81;


$$
WYZ021-027>030-104>119-300100-
SOUTHERN WYOMING

CITY           SKY/WX    TMP DP  RH WIND       PRES   REMARKS
EVANSTON       MOSUNNY   74  37  26 NW13      30.20R
6HR MIN TEMP:  71; 6HR MAX TEMP:  79;

KEMMERER       PTCLDY    72  37  28 W9        30.20F
FORT BRIDGER   FAIR      72  40  31 W7        30.22S
ROCK SPRINGS   SUNNY     76  33  21 W13       30.14F
6HR MIN TEMP:  70; 6HR MAX TEMP:  78;

DIXON          FAIR      72  48  42 SW9       30.18F
RAWLINS        SUNNY     76  30  18 W9        30.15S
6HR MIN TEMP:  68; 6HR MAX TEMP:  77;

SARATOGA       FAIR      70  37  30 W6        30.18S
LARAMIE        MOSUNNY   66  47  50 S8        30.19S
6HR MIN TEMP:  62; 6HR MAX TEMP:  69;

CHEYENNE       PTSUNNY   71  47  42 E6        30.14R
6HR MIN TEMP:  70; 6HR MAX TEMP:  76;

TORRINGTON     SUNNY     79  49  34 N9        30.00F
6HR MIN TEMP:  74; 6HR MAX TEMP:  81;

PINE BLUFFS    FAIR      72  46  40 N7        30.09R

$$



USA.gov is the U.S. government's official web portal to all federal, state and local government web resources and services.